Time,TemperatureF,DewpointF,PressureIn,WindDirection,WindDirectionDegrees,WindSpeedMPH,WindSpeedGustMPH,Humidity,HourlyPrecipIn,Conditions,Clouds,dailyrainin,SolarRadiationWatts/m^2,SoftwareType,DateUTC
2013-05-17 00:01:00,51.5,14.0,29.65,North,360,0.0,3.0,22,0.00,,,0.00,0,weatherlink.com 1.10,2013-05-17 06:01:00,
2013-05-17 00:16:00,51.9,14.0,29.64,North,360,0.0,2.0,22,0.00,,,0.00,0,weatherlink.com 1.10,2013-05-17 06:16:00,
2013-05-17 00:31:00,51.8,13.0,29.64,SSE,159,0.0,1.0,21,0.00,,,0.00,0,weatherlink.com 1.10,2013-05-17 06:31:00,
2013-05-17 00:46:00,50.4,13.0,29.64,North,360,0.0,2.0,22,0.00,,,0.00,0,weatherlink.com 1.10,2013-05-17 06:46:00,
2013-05-17 01:01:00,49.1,14.0,29.64,North,360,0.0,1.0,24,0.00,,,0.00,0,weatherlink.com 1.10,2013-05-17 07:01:00,
2013-05-17 01:16:00,51.0,13.0,29.63,North,360,0.0,2.0,22,0.00,,,0.00,0,weatherlink.com 1.10,2013-05-17 07:16:00,
2013-05-17 01:31:00,52.4,12.0,29.63,WSW,251,0.0,5.0,20,0.00,,,0.00,0,weatherlink.com 1.10,2013-05-17 07:31:00,
2013-05-17 01:46:00,51.3,12.0,29.62,WNW,294,0.0,4.0,21,0.00,,,0.00,0,weatherlink.com 1.10,2013-05-17 07:46:00,
2013-05-17 02:01:00,51.6,13.0,29.63,North,360,0.0,3.0,21,0.00,,,0.00,0,weatherlink.com 1.10,2013-05-17 08:01:00,
2013-05-17 02:16:00,49.9,13.0,29.62,North,360,0.0,2.0,23,0.00,,,0.00,0,weatherlink.com 1.10,2013-05-17 08:16:00,
2013-05-17 02:31:00,49.0,13.0,29.63,North,360,0.0,0.0,24,0.00,,,0.00,0,weatherlink.com 1.10,2013-05-17 08:31:00,
2013-05-17 02:46:00,47.7,14.0,29.63,North,360,1.0,2.0,26,0.00,,,0.00,0,weatherlink.com 1.10,2013-05-17 08:46:00,
2013-05-17 03:01:00,48.7,13.0,29.63,North,360,0.0,3.0,24,0.00,,,0.00,0,weatherlink.com 1.10,2013-05-17 09:01:00,
2013-05-17 03:16:00,49.9,14.0,29.64,North,360,0.0,7.0,24,0.00,,,0.00,0,weatherlink.com 1.10,2013-05-17 09:16:00,
2013-05-17 03:31:00,49.1,14.0,29.64,North,360,0.0,3.0,24,0.00,,,0.00,0,weatherlink.com 1.10,2013-05-17 09:31:00,
2013-05-17 03:46:00,47.5,13.0,29.65,North,360,1.0,2.0,25,0.00,,,0.00,0,weatherlink.com 1.10,2013-05-17 09:46:00,
2013-05-17 04:01:00,49.0,13.0,29.64,North,360,2.0,4.0,24,0.00,,,0.00,0,weatherlink.com 1.10,2013-05-17 10:01:00,
2013-05-17 04:16:00,48.5,14.0,29.64,North,360,1.0,3.0,25,0.00,,,0.00,0,weatherlink.com 1.10,2013-05-17 10:16:00,
2013-05-17 04:31:00,47.9,13.0,29.64,North,360,0.0,2.0,25,0.00,,,0.00,0,weatherlink.com 1.10,2013-05-17 10:31:00,
2013-05-17 04:46:00,47.1,14.0,29.64,North,360,0.0,2.0,26,0.00,,,0.00,0,weatherlink.com 1.10,2013-05-17 10:46:00,
2013-05-17 05:01:00,46.4,14.0,29.64,North,360,0.0,2.0,27,0.00,,,0.00,0,weatherlink.com 1.10,2013-05-17 11:01:00,
2013-05-17 05:16:00,44.9,14.0,29.65,North,360,2.0,2.0,29,0.00,,,0.00,0,weatherlink.com 1.10,2013-05-17 11:16:00,
2013-05-17 05:31:00,45.4,14.0,29.65,North,360,0.0,2.0,28,0.00,,,0.00,0,weatherlink.com 1.10,2013-05-17 11:31:00,
2013-05-17 05:46:00,44.7,14.0,29.65,North,360,0.0,1.0,29,0.00,,,0.00,0,weatherlink.com 1.10,2013-05-17 11:46:00,
2013-05-17 06:01:00,46.4,14.0,29.65,North,360,0.0,3.0,27,0.00,,,0.00,7,weatherlink.com 1.10,2013-05-17 12:01:00,
2013-05-17 06:16:00,45.2,15.0,29.66,North,360,0.0,2.0,29,0.00,,,0.00,11,weatherlink.com 1.10,2013-05-17 12:16:00,
2013-05-17 06:31:00,44.7,15.0,29.66,North,360,0.0,2.0,30,0.00,,,0.00,12,weatherlink.com 1.10,2013-05-17 12:31:00,
2013-05-17 06:47:00,44.8,16.0,29.68,North,360,1.0,3.0,31,0.00,,,0.00,14,weatherlink.com 1.10,2013-05-17 12:47:00,
2013-05-17 07:02:00,45.1,15.0,29.68,North,360,0.0,1.0,30,0.00,,,0.00,23,weatherlink.com 1.10,2013-05-17 13:02:00,
2013-05-17 07:17:00,47.0,15.0,29.68,North,360,0.0,2.0,28,0.00,,,0.00,28,weatherlink.com 1.10,2013-05-17 13:17:00,
2013-05-17 07:32:00,47.7,16.0,29.69,North,360,0.0,1.0,28,0.00,,,0.00,33,weatherlink.com 1.10,2013-05-17 13:32:00,
2013-05-17 07:47:00,48.6,17.0,29.69,North,360,1.0,4.0,28,0.00,,,0.00,37,weatherlink.com 1.10,2013-05-17 13:47:00,
2013-05-17 08:02:00,49.3,17.0,29.68,WNW,295,2.0,4.0,28,0.00,,,0.00,40,weatherlink.com 1.10,2013-05-17 14:02:00,
2013-05-17 08:17:00,50.9,17.0,29.68,SE,146,0.0,4.0,26,0.00,,,0.00,42,weatherlink.com 1.10,2013-05-17 14:17:00,
2013-05-17 08:32:00,52.4,19.0,29.68,West,269,1.0,3.0,27,0.00,,,0.00,139,weatherlink.com 1.10,2013-05-17 14:32:00,
2013-05-17 09:02:00,54.6,16.0,29.67,SW,214,2.0,5.0,22,0.00,,,0.00,580,weatherlink.com 1.10,2013-05-17 15:02:00,
2013-05-17 09:17:00,56.0,18.0,29.67,West,264,2.0,5.0,23,0.00,,,0.00,629,weatherlink.com 1.10,2013-05-17 15:17:00,
2013-05-17 09:32:00,56.8,16.0,29.67,WSW,254,1.0,5.0,20,0.00,,,0.00,679,weatherlink.com 1.10,2013-05-17 15:32:00,
2013-05-17 09:47:00,58.0,16.0,29.67,WSW,240,1.0,8.0,19,0.00,,,0.00,728,weatherlink.com 1.10,2013-05-17 15:47:00,
2013-05-17 10:02:00,58.5,14.0,29.67,WSW,255,4.0,7.0,17,0.00,,,0.00,780,weatherlink.com 1.10,2013-05-17 16:02:00,
2013-05-17 10:17:00,59.7,15.0,29.67,SW,230,2.0,7.0,17,0.00,,,0.00,729,weatherlink.com 1.10,2013-05-17 16:17:00,
2013-05-17 10:32:00,61.2,17.0,29.67,NW,313,4.0,8.0,18,0.00,,,0.00,835,weatherlink.com 1.10,2013-05-17 16:32:00,
2013-05-17 10:47:00,60.9,16.0,29.66,SW,219,2.0,6.0,17,0.00,,,0.00,807,weatherlink.com 1.10,2013-05-17 16:47:00,
2013-05-17 11:02:00,62.4,17.0,29.66,North,360,3.0,4.0,17,0.00,,,0.00,976,weatherlink.com 1.10,2013-05-17 17:02:00,
2013-05-17 11:17:00,63.3,15.0,29.66,North,360,2.0,7.0,15,0.00,,,0.00,1014,weatherlink.com 1.10,2013-05-17 17:17:00,
2013-05-17 11:33:00,62.8,14.0,29.66,North,360,3.0,6.0,15,0.00,,,0.00,592,weatherlink.com 1.10,2013-05-17 17:33:00,
2013-05-17 11:48:00,62.4,15.0,29.65,North,360,2.0,8.0,16,0.00,,,0.00,573,weatherlink.com 1.10,2013-05-17 17:48:00,
2013-05-17 12:03:00,64.0,17.0,29.66,North,360,3.0,6.0,16,0.00,,,0.00,838,weatherlink.com 1.10,2013-05-17 18:03:00,
2013-05-17 12:18:00,62.5,14.0,29.66,North,360,4.0,8.0,15,0.00,,,0.00,531,weatherlink.com 1.10,2013-05-17 18:18:00,
2013-05-17 12:33:00,63.6,13.0,29.65,North,360,0.0,7.0,14,0.00,,,0.00,578,weatherlink.com 1.10,2013-05-17 18:33:00,
2013-05-17 12:48:00,67.0,18.0,29.64,North,360,2.0,6.0,15,0.00,,,0.00,1209,weatherlink.com 1.10,2013-05-17 18:48:00,
2013-05-17 13:03:00,66.6,12.0,29.64,West,263,4.0,7.0,12,0.00,,,0.00,577,weatherlink.com 1.10,2013-05-17 19:03:00,
2013-05-17 13:18:00,65.8,12.0,29.64,West,265,2.0,5.0,12,0.00,,,0.00,464,weatherlink.com 1.10,2013-05-17 19:18:00,
2013-05-17 13:33:00,66.9,16.0,29.64,SW,227,5.0,7.0,14,0.00,,,0.00,981,weatherlink.com 1.10,2013-05-17 19:33:00,
2013-05-17 13:48:00,69.5,16.0,29.63,WSW,253,3.0,7.0,13,0.00,,,0.00,1016,weatherlink.com 1.10,2013-05-17 19:48:00,
2013-05-17 14:03:00,69.5,15.0,29.62,North,360,5.0,8.0,12,0.00,,,0.00,889,weatherlink.com 1.10,2013-05-17 20:03:00,
2013-05-17 14:18:00,70.6,15.0,29.62,WSW,243,2.0,6.0,12,0.00,,,0.00,1041,weatherlink.com 1.10,2013-05-17 20:18:00,
2013-05-17 14:33:00,68.9,12.0,29.61,NNW,332,1.0,8.0,11,0.00,,,0.00,621,weatherlink.com 1.10,2013-05-17 20:33:00,
2013-05-17 14:48:00,68.7,14.0,29.62,WNW,282,2.0,7.0,12,0.00,,,0.00,512,weatherlink.com 1.10,2013-05-17 20:48:00,
2013-05-17 15:03:00,66.1,12.0,29.61,WSW,252,4.0,6.0,12,0.00,,,0.00,357,weatherlink.com 1.10,2013-05-17 21:03:00,
2013-05-17 15:18:00,65.6,13.0,29.61,SW,217,5.0,7.0,13,0.00,,,0.00,459,weatherlink.com 1.10,2013-05-17 21:18:00,
2013-05-17 15:33:00,66.8,16.0,29.61,WSW,246,2.0,6.0,14,0.00,,,0.00,540,weatherlink.com 1.10,2013-05-17 21:33:00,
2013-05-17 15:48:00,67.7,13.0,29.60,West,279,1.0,6.0,12,0.00,,,0.00,461,weatherlink.com 1.10,2013-05-17 21:48:00,
2013-05-17 16:03:00,70.8,14.0,29.59,WSW,250,2.0,7.0,11,0.00,,,0.00,691,weatherlink.com 1.10,2013-05-17 22:03:00,
2013-05-17 16:18:00,69.2,14.0,29.59,West,262,2.0,9.0,12,0.00,,,0.00,784,weatherlink.com 1.10,2013-05-17 22:18:00,
2013-05-17 16:33:00,71.2,14.0,29.58,West,261,1.0,6.0,11,0.00,,,0.00,715,weatherlink.com 1.10,2013-05-17 22:33:00,
2013-05-17 16:48:00,70.1,13.0,29.58,WNW,290,2.0,7.0,11,0.00,,,0.00,698,weatherlink.com 1.10,2013-05-17 22:48:00,
2013-05-17 17:03:00,70.2,13.0,29.57,WSW,257,1.0,8.0,11,0.00,,,0.00,640,weatherlink.com 1.10,2013-05-17 23:03:00,
2013-05-17 17:18:00,70.2,13.0,29.58,NW,317,4.0,7.0,11,0.00,,,0.00,585,weatherlink.com 1.10,2013-05-17 23:18:00,
2013-05-17 17:33:00,69.6,13.0,29.58,WSW,252,3.0,7.0,11,0.00,,,0.00,534,weatherlink.com 1.10,2013-05-17 23:33:00,
2013-05-17 17:48:00,69.3,14.0,29.57,WNW,301,2.0,8.0,12,0.00,,,0.00,483,weatherlink.com 1.10,2013-05-17 23:48:00,
2013-05-17 18:03:00,68.8,12.0,29.58,WSW,240,3.0,6.0,11,0.00,,,0.00,422,weatherlink.com 1.10,2013-05-18 00:03:00,
2013-05-17 18:18:00,67.6,13.0,29.58,North,360,2.0,8.0,12,0.00,,,0.00,367,weatherlink.com 1.10,2013-05-18 00:18:00,
2013-05-17 18:33:00,66.9,14.0,29.58,WNW,284,2.0,6.0,13,0.00,,,0.00,67,weatherlink.com 1.10,2013-05-18 00:33:00,
2013-05-17 18:48:00,65.8,13.0,29.57,WNW,290,1.0,7.0,13,0.00,,,0.00,53,weatherlink.com 1.10,2013-05-18 00:48:00,
2013-05-17 19:03:00,65.1,13.0,29.57,SSE,163,2.0,5.0,13,0.00,,,0.00,65,weatherlink.com 1.10,2013-05-18 01:03:00,
2013-05-17 19:18:00,64.4,12.0,29.57,NW,311,1.0,7.0,13,0.00,,,0.00,46,weatherlink.com 1.10,2013-05-18 01:18:00,
2013-05-17 19:33:00,63.2,11.0,29.58,North,360,4.0,6.0,13,0.00,,,0.00,19,weatherlink.com 1.10,2013-05-18 01:33:00,
2013-05-17 19:48:00,61.5,12.0,29.59,North,360,2.0,4.0,14,0.00,,,0.00,12,weatherlink.com 1.10,2013-05-18 01:48:00,
2013-05-17 20:03:00,60.0,13.0,29.59,North,360,0.0,3.0,16,0.00,,,0.00,0,weatherlink.com 1.10,2013-05-18 02:03:00,
2013-05-17 20:18:00,58.3,12.0,29.59,North,360,0.0,4.0,16,0.00,,,0.00,0,weatherlink.com 1.10,2013-05-18 02:18:00,
2013-05-17 20:33:00,58.0,13.0,29.59,North,360,0.0,3.0,17,0.00,,,0.00,0,weatherlink.com 1.10,2013-05-18 02:33:00,
2013-05-17 20:48:00,57.4,13.0,29.59,North,360,0.0,3.0,17,0.00,,,0.00,0,weatherlink.com 1.10,2013-05-18 02:48:00,
2013-05-17 21:03:00,57.3,13.0,29.60,North,360,1.0,4.0,17,0.00,,,0.00,0,weatherlink.com 1.10,2013-05-18 03:03:00,
2013-05-17 21:18:00,57.6,13.0,29.60,North,360,1.0,5.0,17,0.00,,,0.00,0,weatherlink.com 1.10,2013-05-18 03:18:00,
2013-05-17 21:33:00,57.2,14.0,29.61,North,360,0.0,5.0,18,0.00,,,0.00,0,weatherlink.com 1.10,2013-05-18 03:33:00,
2013-05-17 21:48:00,57.0,14.0,29.62,North,360,0.0,3.0,18,0.00,,,0.00,0,weatherlink.com 1.10,2013-05-18 03:48:00,
2013-05-17 22:03:00,58.2,17.0,29.62,North,360,1.0,5.0,20,0.00,,,0.00,0,weatherlink.com 1.10,2013-05-18 04:03:00,
2013-05-17 22:18:00,57.4,18.0,29.62,North,360,0.0,2.0,21,0.00,,,0.00,0,weatherlink.com 1.10,2013-05-18 04:18:00,
2013-05-17 22:33:00,56.8,17.0,29.62,North,360,0.0,3.0,21,0.00,,,0.00,0,weatherlink.com 1.10,2013-05-18 04:33:00,
2013-05-17 22:48:00,56.0,17.0,29.62,North,360,0.0,2.0,22,0.00,,,0.00,0,weatherlink.com 1.10,2013-05-18 04:48:00,
2013-05-17 23:03:00,55.9,18.0,29.61,North,360,0.0,3.0,23,0.00,,,0.00,0,weatherlink.com 1.10,2013-05-18 05:03:00,
2013-05-17 23:18:00,55.0,19.0,29.61,North,360,0.0,3.0,24,0.00,,,0.00,0,weatherlink.com 1.10,2013-05-18 05:18:00,
2013-05-17 23:33:00,54.8,19.0,29.60,North,360,0.0,3.0,25,0.00,,,0.00,0,weatherlink.com 1.10,2013-05-18 05:33:00,
2013-05-17 23:48:00,54.3,21.0,29.60,North,360,0.0,4.0,27,0.00,,,0.00,0,weatherlink.com 1.10,2013-05-18 05:48:00,